Time,TemperatureF,DewpointF,PressureIn,WindDirection,WindDirectionDegrees,WindSpeedMPH,WindSpeedGustMPH,Humidity,HourlyPrecipIn,Conditions,Clouds,dailyrainin,SoftwareType,DateUTC
2013-03-07 00:03:00,58.0,-99.9,-100.00,WNW,291,21.0,32.0,-999,-99.99,,,-99.99,,2013-03-07 08:03:00,
2013-03-07 01:33:00,58.0,-99.9,-100.00,WNW,285,29.0,38.0,-999,-99.99,,,-99.99,,2013-03-07 09:33:00,
2013-03-07 01:43:00,58.0,-99.9,-100.00,WNW,285,29.0,38.0,-999,-99.99,,,-99.99,,2013-03-07 09:43:00,
2013-03-07 01:54:00,58.0,-99.9,-100.00,WNW,285,29.0,38.0,-999,-99.99,,,-99.99,,2013-03-07 09:54:00,
2013-03-07 02:24:00,58.0,-99.9,-100.00,WNW,291,30.0,35.0,-999,-99.99,,,-99.99,,2013-03-07 10:24:00,
2013-03-07 02:34:00,58.0,-99.9,-100.00,WNW,291,30.0,35.0,-999,-99.99,,,-99.99,,2013-03-07 10:34:00,
2013-03-07 02:40:00,59.0,-99.9,-100.00,WNW,288,20.0,29.0,-999,-99.99,,,-99.99,,2013-03-07 10:40:00,
2013-03-07 03:24:00,59.0,-99.9,-100.00,WNW,288,20.0,29.0,-999,-99.99,,,-99.99,,2013-03-07 11:24:00,
2013-03-07 03:34:00,59.0,-99.9,-100.00,WNW,288,20.0,29.0,-999,-99.99,,,-99.99,,2013-03-07 11:34:00,
2013-03-07 04:23:00,58.0,-99.9,-100.00,WNW,288,22.0,31.0,-999,-99.99,,,-99.99,,2013-03-07 12:23:00,
2013-03-07 04:34:00,58.0,-99.9,-100.00,WNW,288,22.0,31.0,-999,-99.99,,,-99.99,,2013-03-07 12:34:00,
2013-03-07 04:53:00,58.0,-99.9,-100.00,West,279,31.0,35.0,-999,-99.99,,,-99.99,,2013-03-07 12:53:00,
2013-03-07 05:03:00,58.0,-99.9,-100.00,West,279,31.0,35.0,-999,-99.99,,,-99.99,,2013-03-07 13:03:00,
2013-03-07 05:53:00,57.0,-99.9,-100.00,WNW,287,23.0,35.0,-999,-99.99,,,-99.99,,2013-03-07 13:53:00,
2013-03-07 06:02:00,57.0,-99.9,-100.00,WNW,287,23.0,35.0,-999,-99.99,,,-99.99,,2013-03-07 14:02:00,
2013-03-07 06:34:00,57.0,-99.9,-100.00,West,278,33.0,36.0,-999,-99.99,,,-99.99,,2013-03-07 14:34:00,
2013-03-07 06:43:00,57.0,-99.9,-100.00,West,278,33.0,36.0,-999,-99.99,,,-99.99,,2013-03-07 14:43:00,
2013-03-07 07:03:00,57.0,-99.9,-100.00,WNW,284,24.0,35.0,-999,-99.99,,,-99.99,,2013-03-07 15:03:00,
2013-03-07 07:13:00,57.0,-99.9,-100.00,WNW,284,24.0,35.0,-999,-99.99,,,-99.99,,2013-03-07 15:13:00,
2013-03-07 10:04:00,62.0,-99.9,-100.00,West,273,12.0,25.0,-999,-99.99,,,-99.99,,2013-03-07 18:04:00,
2013-03-07 10:13:00,62.0,-99.9,-100.00,West,273,12.0,25.0,-999,-99.99,,,-99.99,,2013-03-07 18:13:00,
2013-03-07 10:22:00,62.0,-99.9,-100.00,West,279,10.0,28.0,-999,-99.99,,,-99.99,,2013-03-07 18:22:00,
2013-03-07 10:33:00,62.0,-99.9,-100.00,West,279,10.0,28.0,-999,-99.99,,,-99.99,,2013-03-07 18:33:00,
2013-03-07 10:53:00,62.0,-99.9,-100.00,West,279,20.0,22.0,-999,-99.99,,,-99.99,,2013-03-07 18:53:00,
2013-03-07 11:04:00,62.0,-99.9,-100.00,West,279,20.0,22.0,-999,-99.99,,,-99.99,,2013-03-07 19:04:00,
2013-03-07 11:24:00,63.0,-99.9,-100.00,WSW,258,14.0,25.0,-999,-99.99,,,-99.99,,2013-03-07 19:24:00,
2013-03-07 11:35:00,64.0,-99.9,-100.00,WNW,282,22.0,32.0,-999,-99.99,,,-99.99,,2013-03-07 19:35:00,
2013-03-07 11:44:00,64.0,-99.9,-100.00,WNW,282,22.0,32.0,-999,-99.99,,,-99.99,,2013-03-07 19:44:00,
2013-03-07 14:33:00,64.0,-99.9,-100.00,WNW,301,13.0,30.0,-999,-99.99,,,-99.99,,2013-03-07 22:33:00,
2013-03-07 14:44:00,64.0,-99.9,-100.00,WNW,301,13.0,30.0,-999,-99.99,,,-99.99,,2013-03-07 22:44:00,
2013-03-07 16:05:00,62.0,-99.9,-100.00,WNW,292,19.0,26.0,-999,-99.99,,,-99.99,,2013-03-08 00:05:00,
2013-03-07 16:13:00,62.0,-99.9,-100.00,WNW,292,19.0,26.0,-999,-99.99,,,-99.99,,2013-03-08 00:13:00,
2013-03-07 16:23:00,62.0,-99.9,-100.00,WNW,292,19.0,26.0,-999,-99.99,,,-99.99,,2013-03-08 00:23:00,
2013-03-07 16:35:00,62.0,-99.9,-100.00,WNW,284,12.0,28.0,-999,-99.99,,,-99.99,,2013-03-08 00:35:00,
2013-03-07 16:44:00,62.0,-99.9,-100.00,WNW,284,12.0,28.0,-999,-99.99,,,-99.99,,2013-03-08 00:44:00,
2013-03-07 17:02:00,59.0,-99.9,-100.00,WNW,299,17.0,31.0,-999,-99.99,,,-99.99,,2013-03-08 01:02:00,
2013-03-07 17:12:00,59.0,-99.9,-100.00,WNW,299,17.0,31.0,-999,-99.99,,,-99.99,,2013-03-08 01:12:00,
2013-03-07 17:22:00,59.0,-99.9,-100.00,WNW,299,17.0,31.0,-999,-99.99,,,-99.99,,2013-03-08 01:22:00,
2013-03-07 18:22:00,58.0,-99.9,-100.00,West,280,10.0,24.0,-999,-99.99,,,-99.99,,2013-03-08 02:22:00,
2013-03-07 18:32:00,58.0,-99.9,-100.00,West,280,10.0,24.0,-999,-99.99,,,-99.99,,2013-03-08 02:32:00,
2013-03-07 19:53:00,58.0,-99.9,-100.00,West,274,14.0,23.0,-999,-99.99,,,-99.99,,2013-03-08 03:53:00,
2013-03-07 20:02:00,58.0,-99.9,-100.00,West,276,5.0,19.0,-999,-99.99,,,-99.99,,2013-03-08 04:02:00,
2013-03-07 20:12:00,58.0,-99.9,-100.00,West,276,5.0,19.0,-999,-99.99,,,-99.99,,2013-03-08 04:12:00,
2013-03-07 20:22:00,58.0,-99.9,-100.00,West,276,5.0,19.0,-999,-99.99,,,-99.99,,2013-03-08 04:22:00,
2013-03-07 23:01:00,54.0,-99.9,-100.00,WSW,253,7.0,10.0,-999,-99.99,,,-99.99,,2013-03-08 07:01:00,
2013-03-07 23:11:00,54.0,-99.9,-100.00,WSW,253,7.0,10.0,-999,-99.99,,,-99.99,,2013-03-08 07:11:00,
2013-03-07 23:22:00,54.0,-99.9,-100.00,WSW,253,7.0,10.0,-999,-99.99,,,-99.99,,2013-03-08 07:22:00,